Simultaneous Nadir Overpasses (SNOs) Predictions

Prediction of SNOs between NOAA-20 and AQUA Satellite Orbit:

Table of predicted SNOs for the next 14.0 days since TLE Epoch: 10/12/2024
Index Date (NOAA-20) Time (NOAA-20) Lat,Lon (NOAA-20) SZA (NOAA-20 ) Date (AQUA) Time (AQUA) Lat,Lon (AQUA) SZA (AQUA ) Distance(km) Time Diff (sec)
1 10/13/2024 10:05:38 81.32, -43.87 94.83 10/13/2024 10:05:52 81.31, -43.95 94.84 1.47 14
2 10/13/2024 10:56:21 -81.32, 124.13 85.25 10/13/2024 10:55:12 -81.33, 124.04 85.20 1.63 69
3 10/15/2024 21:18:05 81.32, 148.03 95.72 10/15/2024 21:18:25 81.32, 148.08 95.70 0.85 20
4 10/15/2024 22:08:49 -81.32, -44.35 84.32 10/15/2024 22:07:46 -81.31, -44.29 84.29 1.12 63
5 10/18/2024 08:30:31 81.32, -19.85 96.56 10/18/2024 08:30:53 81.32, -19.87 96.55 0.55 22
6 10/18/2024 09:21:15 -81.32, 147.77 83.48 10/18/2024 09:20:14 -81.32, 147.77 83.44 0.03 61
7 10/20/2024 19:42:57 81.32, 172.09 97.41 10/20/2024 19:43:16 81.33, 172.18 97.39 1.70 19
8 10/20/2024 20:33:41 -81.32, -20.28 82.62 10/20/2024 20:32:37 -81.33, -20.16 82.60 2.16 64
9 10/23/2024 06:55:23 81.32, 3.85 98.28 10/23/2024 06:55:35 81.31, 3.85 98.27 0.59 12
10 10/23/2024 07:46:06 -81.32, 171.88 81.81 10/23/2024 07:44:55 -81.33, 171.91 81.77 1.02 71



Historial Predications of SNOs between NOAA-20 and AQUA
